Date,TemperatureHighF,TemperatureAvgF,TemperatureLowF,DewpointHighF,DewpointAvgF,DewpointLowF,HumidityHigh,HumidityAvg,HumidityLow,PressureMaxIn,PressureMinIn,WindSpeedMaxMPH,WindSpeedAvgMPH,GustSpeedMaxMPH,PrecipitationSumIn
2013-1-4,27.1,27.0,26.9,18.3,18.2,18.1,69,69,69,29.72,29.72,0,0,0,8.16
2013-1-21,-3.5,-3.9,-4.7,-9.7,-10.1,-10.9,74,74,74,29.89,29.82,114,114,114,0.00
2013-1-27,28.7,28.7,28.7,18.8,18.8,18.8,66,66,66,29.96,29.96,0,0,114,0.00
2013-2-10,21.9,21.5,21.3,-8.5,-8.9,-9.0,25,25,25,29.91,29.88,0,0,114,0.00
2013-2-12,18.6,18.4,18.3,-1.5,-1.7,-1.8,41,40,40,29.81,29.80,0,0,0,0.00
2013-2-13,38.5,25.7,17.8,27.4,7.4,-5.6,66,46,30,29.60,29.52,114,114,114,0.00
2013-2-16,17.9,12.1,2.8,8.9,2.0,-9.9,70,64,54,29.99,20.46,0,0,114,0.00
2013-2-21,15.6,15.6,15.6,-11.7,-12.0,-12.4,28,28,27,30.35,30.34,0,0,0,0.00
2013-2-24,27.6,27.5,27.5,12.7,12.1,11.4,53,52,51,29.98,29.97,0,0,0,0.00
2013-2-25,31.6,31.6,31.6,21.2,21.2,21.2,65,65,65,29.99,29.99,0,0,0,0.00
2013-2-28,22.4,21.6,21.0,9.7,4.5,2.3,58,47,43,30.10,30.02,0,0,0,0.00
2013-3-4,24.0,22.0,19.9,13.2,12.5,11.4,69,66,62,30.05,30.04,0,0,0,0.00
2013-3-7,19.9,19.5,19.4,-1.2,-2.1,-2.6,39,38,37,30.26,30.25,0,0,0,0.00
2013-3-8,34.3,34.3,34.3,22.3,22.3,22.3,61,61,61,30.17,30.17,0,0,0,0.00
2013-3-12,18.8,18.8,18.8,10.6,10.6,10.6,70,70,70,29.73,29.73,0,0,0,0.00
2013-3-16,19.2,19.2,19.2,9.7,9.5,9.4,66,66,65,29.90,29.90,0,0,0,0.00
2013-3-21,18.6,18.6,18.6,1.7,1.5,1.3,47,46,46,29.82,29.82,0,0,0,0.00
2013-3-27,22.8,22.6,22.6,1.4,1.1,0.8,39,38,38,30.12,30.12,0,0,0,0.00
2013-4-8,33.2,33.2,33.2,-3.5,-3.5,-3.5,20,20,20,29.86,29.86,0,0,0,0.00
2013-4-13,27.6,27.6,27.6,-5.3,-5.3,-5.3,23,23,23,29.61,29.60,0,0,0,0.06
2013-4-14,30.3,30.3,30.3,-3.0,-3.0,-3.0,23,23,23,29.85,29.84,0,0,0,0.00
2013-4-15,46.7,46.7,46.7,27.6,27.6,27.6,47,47,47,29.63,29.63,0,0,0,0.00
2013-4-26,57.0,57.0,57.0,38.0,38.0,38.0,49,49,49,29.98,29.98,0,0,0,0.00
2013-5-5,57.0,57.0,57.0,40.5,40.5,40.5,54,54,54,30.03,30.02,0,0,0,0.00
2013-5-12,33.6,33.6,33.6,21.6,21.6,21.6,61,61,61,29.93,29.92,0,0,0,0.00
2013-5-26,64.0,64.0,64.0,35.1,35.1,34.2,34,34,34,30.21,30.21,0,0,0,0.00
2013-6-1,65.6,65.5,65.4,26.8,26.8,26.7,23,23,23,29.60,29.60,0,0,0,0.00
2013-6-26,82.5,82.4,82.2,64.7,64.6,64.4,55,55,55,29.76,29.76,0,0,0,0.00
2013-7-15,75.9,75.6,75.3,41.2,39.0,37.1,29,27,25,30.25,30.25,0,0,0,0.00
2013-7-23,53.7,53.5,53.4,37.5,35.5,34.2,54,50,48,29.79,29.78,0,0,0,0.00